GW5434 Weather Reports


time (UTC)temp
F
wind
direction
speed
knots
gust
knots
rain 1hr
in
rain 24hr
in
rain mn
in
humidity
%
barometer
mb
20260505231516 77 121 3.5 7.8 0.00 0.00 0.00 71 1011.9
20260505230012 77 213 2.6 9.6 0.00 0.00 0.00 71 1012.1
20260505224516 78 210 4.3 8.7 0.00 0.00 0.00 70 1011.8
20260505223017 78 147 2.6 6.1 0.00 0.00 0.00 69 1011.9
20260505221518 79 171 4.3 8.7 0.00 0.00 0.00 68 1011.9
20260505220018 79 195 4.3 9.6 0.00 0.00 0.00 68 1011.7
20260505214509 80 153 2.6 9.6 0.00 0.00 0.00 68 1011.9
20260505213015 81 215 5.2 7.8 0.00 0.00 0.00 65 1011.8
20260505211518 81 136 4.3 11.3 0.00 0.00 0.00 64 1011.8
20260505210022 81 171 3.5 8.7 0.00 0.00 0.00 63 1011.9
20260505204525 82 86 3.5 10.4 0.00 0.00 0.00 62 1011.9
20260505203012 83 145 5.2 12.2 0.00 0.00 0.00 59 1011.9
20260505201522 82 185 1.7 7.8 0.00 0.00 0.00 62 1012.0
20260505200024 82 198 3.5 9.6 0.00 0.00 0.00 59 1012.3
20260505194505 82 174 2.6 11.3 0.00 0.00 0.00 59 1012.3
20260505193010 82 201 3.5 8.7 0.00 0.00 0.00 60 1012.6
20260505191512 83 146 3.5 8.7 0.00 0.00 0.00 57 1012.5
20260505190020 83 172 5.2 10.4 0.00 0.00 0.00 57 1012.8
20260505184526 82 129 5.2 9.6 0.00 0.00 0.00 58 1013.0
20260505183015 83 224 5.2 11.3 0.00 0.00 0.00 56 1013.1
20260505181512 83 217 5.2 8.7 0.00 0.00 0.00 56 1013.4
20260505180016 81 124 2.6 6.1 0.00 0.00 0.00 58 1013.3
20260505174520 81 176 5.2 9.6 0.00 0.00 0.00 58 1013.5
20260505173023 82 158 2.6 11.3 0.00 0.00 0.00 59 1013.6
20260505171508 80 272 5.2 11.3 0.00 0.00 0.00 58 1013.6
20260505170011 80 233 7.8 11.3 0.00 0.00 0.00 58 1013.9
20260505164520 80 214 4.3 11.3 0.00 0.00 0.00 59 1013.9
20260505163022 79 216 5.2 11.3 0.00 0.00 0.00 61 1013.8
20260505161528 78 206 3.5 12.2 0.00 0.00 0.00 65 1013.8
20260505153018 76 237 3.5 10.4 0.00 0.00 0.00 66 1014.1
20260505151521 75 144 3.5 12.2 0.00 0.00 0.00 67 1014.3
20260505124524 56 120 0.0 0.0 0.00 0.00 0.00 94 1014.2
20260505123028 54 120 0.0 0.0 0.00 0.00 0.00 94 1014.2
20260505121513 53 120 0.0 0.0 0.00 0.00 0.00 94 1014.0
20260505120020 52 120 0.0 0.0 0.00 0.00 0.00 94 1013.9
20260505114522 51 120 0.0 0.0 0.00 0.00 0.00 94 1013.9
20260505113030 50 120 0.0 0.0 0.00 0.00 0.00 94 1013.8
20260505111511 50 120 0.0 0.0 0.00 0.00 0.00 93 1013.5
20260505101513 51 118 0.0 0.0 0.00 0.00 0.00 93 1013.7
20260505100013 51 118 0.0 0.0 0.00 0.00 0.00 94 1013.7
20260505094524 51 118 0.0 0.0 0.00 0.00 0.00 93 1013.5
20260505093004 51 119 0.0 0.0 0.00 0.00 0.00 93 1013.3
20260505091507 51 118 0.0 0.0 0.00 0.00 0.00 93 1013.3
20260505090009 51 118 0.0 0.0 0.00 0.00 0.00 93 1013.2
20260505084517 51 118 0.0 0.0 0.00 0.00 0.00 92 1013.3
20260505083019 52 118 0.0 0.0 0.00 0.00 0.00 92 1013.3
20260505081504 52 118 0.0 0.0 0.00 0.00 0.00 92 1013.4
20260505080006 52 118 0.0 0.0 0.00 0.00 0.00 91 1013.7
20260505074508 52 119 0.0 0.0 0.00 0.00 0.00 91 1013.7
20260505073020 53 119 0.0 0.0 0.00 0.00 0.00 92 1013.9
20260505071518 53 119 0.0 0.0 0.00 0.00 0.00 92 1014.0
20260505070035 53 119 0.0 0.0 0.00 0.00 0.00 91 1014.3
20260505064508 53 118 0.0 0.0 0.00 0.00 0.00 90 1014.2
20260505063012 54 118 0.0 0.0 0.00 0.00 0.00 89 1014.2
20260505061523 55 118 0.0 0.0 0.00 0.00 0.00 88 1014.4
20260505060021 55 118 0.0 0.0 0.00 0.00 0.00 87 1014.5
20260505054530 56 118 0.0 0.0 0.00 0.00 0.00 86 1014.8
20260505053007 56 118 0.0 0.0 0.00 0.00 0.00 84 1014.7
20260505051520 57 118 0.0 0.0 0.00 0.00 0.00 83 1014.7
20260505041510 59 147 0.0 0.0 0.00 0.00 0.00 78 1014.9
20260505040018 61 141 0.0 1.7 0.00 0.00 0.00 76 1014.7
20260505034524 62 120 0.0 4.3 0.00 0.00 0.00 74 1014.7
20260505033025 62 133 0.9 3.5 0.00 0.00 0.00 73 1014.6
20260505031537 63 139 0.9 4.3 0.00 0.00 0.00 72 1014.6
20260505030012 63 181 0.0 4.3 0.00 0.00 0.00 72 1014.4
20260505024517 63 125 0.0 3.5 0.00 0.00 0.00 73 1014.4
20260505023020 63 121 0.0 1.7 0.00 0.00 0.00 72 1014.5
20260505021506 63 151 0.9 4.3 0.00 0.00 0.00 71 1014.5
20260505020007 63 85 0.9 1.7 0.00 0.00 0.00 73 1014.3
20260505014512 63 130 0.0 0.9 0.00 0.00 0.00 75 1014.1
20260505013018 64 114 0.0 0.9 0.00 0.00 0.00 75 1014.1
20260505011521 65 176 0.0 0.9 0.00 0.00 0.00 73 1013.9
20260505010006 67 176 0.0 0.0 0.00 0.00 0.00 68 1013.9
20260505004512 70 176 0.0 1.7 0.00 0.00 0.00 60 1013.9
20260505003015 73 194 0.9 3.5 0.00 0.00 0.00 55 1013.8
20260505001521 76 115 1.7 3.5 0.00 0.00 0.00 49 1013.6
20260505000025 77 205 0.0 6.1 0.00 0.00 0.00 48 1013.7
20260504234509 77 136 3.5 7.0 0.00 0.00 0.00 46 1013.7
20260504233012 78 215 2.6 7.0 0.00 0.00 0.00 44 1013.8